Home > Weather > Pueblo > Past weeks

Flag for USA Weather for the Past 2 Weeks in Pueblo, Colorado, USA

Now
68 °F

Sunny.


Feels Like: 68 °F
Forecast: 44 / 85 °F
Wind: 3 mph from Southeast

Location: Pueblo Memorial Airport

Current Time: May 5, 2016 at 10:15:49 AM

Latest Report: May 5, 2016 at 9:53 AM


Visibility: 10 mi

Pressure: 30.00 "Hg (25.39 "Hg at 1430m altitude)

Humidity: 35%

Dew Point: 39 °F

Location of PuebloLocation

Historic Weather in Pueblo — Graph

°F

Pueblo Temperature Yesterday

Maximum temperature yesterday: 79 °F (at 3:53 PM)
Minimum temperature yesterday: 41 °F (at 5:53 AM)
Average temperature yesterday: 61 °F

High & Low Weather Summary for the Past Weeks

 TemperatureHumidityPressure
High83 °F (Apr 23, 3:53 PM)92% (Apr 29, 6:53 AM)30.30 "Hg (Apr 29, 6:53 AM)
Low32 °F (May 2, 4:53 AM)9% (Apr 25, 3:53 PM)29.34 "Hg (Apr 25, 6:53 PM)
Average53 °F49%29.89 "Hg
* Reported Apr 20 8:53 AM — May 5 8:53 AM, Pueblo, Weather by CustomWeather, © 2016

Note: Actual official high and low records may vary slightly from our data, if they occured in-between our weather recording intervals... More about our weather records

Advertising

Pueblo Weather History for the Previous 24 Hours

Scroll right to see more
 ConditionsComfort  
Time TempWeatherWind HumidityBarometerVisibility
8:53 AM
Thu, May 5
62 °FSunny.No wind43%30.01 "Hg10 mi
7:53 AM57 °FSunny.3 mph51%30.01 "Hg10 mi
6:53 AM50 °FClear.6 mph66%30.01 "Hg10 mi
5:53 AM46 °FClear.6 mph71%29.99 "Hg10 mi
4:53 AM47 °FClear.6 mph71%29.99 "Hg10 mi
3:53 AM47 °FClear.8 mph69%29.98 "Hg10 mi
2:53 AM52 °FClear.8 mph57%29.97 "Hg10 mi
1:53 AM53 °FClear.12 mph56%29.97 "Hg10 mi
12:53 AM53 °FClear.7 mph56%29.99 "Hg10 mi
11:53 PM
Wed, May 4
53 °FClear.9 mph56%30.00 "Hg10 mi
10:53 PM55 °FClear.3 mph51%30.00 "Hg10 mi
9:53 PM59 °FClear.3 mph44%29.99 "Hg10 mi
8:53 PM61 °FClear.8 mph39%29.98 "Hg10 mi
7:53 PM69 °FSunny.8 mph26%29.98 "Hg10 mi
6:53 PM76 °FSunny.16 mph19%29.97 "Hg10 mi
5:53 PM78 °FSunny.17 mph16%29.98 "Hg10 mi
4:53 PM79 °FSunny.9 mph16%29.98 "Hg10 mi
3:53 PM79 °FSunny.14 mph16%29.99 "Hg10 mi
2:53 PM78 °FSunny.8 mph16%30.02 "Hg10 mi
1:53 PM78 °FSunny.5 mph16%30.04 "Hg10 mi
12:53 PM75 °FSunny.N/A18%30.06 "Hg10 mi
11:53 AM73 °FSunny.10 mph20%30.09 "Hg10 mi
10:53 AM70 °FSunny.3 mph23%30.11 "Hg10 mi
Weather by CustomWeather, © 2016

See weather overviewHow to use our weather pages